THORAD DELTA 1 DEB, 8160

Orbit data source: Space-Track

THORAD DELTA 1 DEB, 8160 is space debris in SSO originally from a launch on Fri, 15 Nov 1974 UTC launched from the Air Force Western Test Range (AFWTR). Debris objects in space refer to the collection of defunct objects orbiting the Earth. Examples of debris include non-operational satellites, rocket bodies, and fragments generated from explosions, collisions, or faulty payload assembly.

Loading next visibility...
Identifier
8160, 1974-089AA
Orbit
SSO
Country
Flag of USUS
Related business
Manufacturer
Unknown
Mission
Spacecraft
Bus & Motor
Unknown
Mass
Unknown
Launch date (UTC)
Icon of a cake. It is the launch day of the satellite!1974-11-15 (51 years ago)
Launch vehicle
Unknown
Launch site
Air Force Western Test Range (AFWTR)
Object type
Payload
Rocket body
Debris
Shape & HBR
Unknown shape, 0.1 m
Radar Cross Section
Small (<0.1 m²)

Expand to show TLE details & history
Last TLE update: 17 hours ago

TLE from 17 hours ago
0 THORAD DELTA 1 DEB
1  8160U 74089AA  25318.31726161  .00000022  00000-0  35575-3 0  9991
2  8160 101.7981  88.0038 0146457 144.7652 244.6834 12.63526039350722
Epoch: 2025-11-14T07:36Z
TLE epoch observation values (Epoch: 2025-11-14T07:36:51.403Z)
Latitude
27.34183°
Longitude
-86.04251°
Altitude
1,461.614 km
Speed
7.111 km/s
True Right ascension
05h 27m 20s
True Declination
27° 12' 52"
Sunlit
Object was in full shadow at epoch
Visualization orbit readout
Latitude
Unknown
Longitude
Unknown
Altitude
Unknown
Speed
Unknown
Apparent Right ascension
Unknown
Apparent Declination
Unknown
Sunlit
N/A
Visualization observer readout
Local Sidereal Time
21:12:14
Azimuth
Unknown
Elevation
Unknown
Doppler factor
Unknown
Orbital elements
Apogee altitude
1,519.959 km
Perigee altitude
1,291.952 km
Semi-major axis
7,784.093 km
Eccentricity
0.01465
Inclination
101.7981°
RAAN
88.0038°
Arg. of periapsis
144.7652°
True anomaly
243.17827°
Mean anomaly
244.6834°
Eccentric anomaly
243.92964°
Mean motion
3.16032 °/min
Orbital period
113.91 mins
BSTAR
0.00035575
Loading maneuver chart data...
Computing Atmospheric mass density...

Documentation

Showing up to 5 results
|